| time (UTC) | temp F | wind direction | speed knots | gust knots | rain 1hr in | rain 24hr in | rain mn in | humidity % | barometer mb |
| 20260903230119 | 89 | 110 | 5.2 | 11.3 | 0.00 | 0.01 | 0.01 | 55 | 1010.0 |
| 20260903225615 | 90 | 149 | 4.3 | 11.3 | 0.00 | 0.01 | 0.01 | 54 | 1010.0 |
| 20260903225113 | 90 | 143 | 4.3 | 8.7 | 0.00 | 0.01 | 0.01 | 54 | 1010.0 |
| 20260903224549 | 91 | 154 | 3.5 | 10.4 | 0.00 | 0.01 | 0.01 | 54 | 1009.9 |
| 20260903224020 | 91 | 223 | 3.5 | 9.6 | 0.00 | 0.01 | 0.01 | 53 | 1009.9 |
| 20260903223516 | 91 | 141 | 3.5 | 9.6 | 0.00 | 0.02 | 0.01 | 54 | 1009.9 |
| 20260903223211 | 90 | 116 | 4.3 | 9.6 | 0.00 | 0.05 | 0.01 | 53 | 1009.9 |
| 20260903222641 | 90 | 217 | 4.3 | 10.4 | 0.00 | 0.05 | 0.01 | 53 | 1009.9 |
| 20260903221918 | 90 | 107 | 5.2 | 10.4 | 0.00 | 0.05 | 0.01 | 54 | 1009.9 |
| 20260903221640 | 90 | 153 | 5.2 | 11.3 | 0.00 | 0.05 | 0.01 | 53 | 1009.9 |
| 20260903220914 | 90 | 108 | 5.2 | 11.3 | 0.00 | 0.05 | 0.01 | 52 | 1009.9 |
| 20260903220349 | 90 | 113 | 5.2 | 10.4 | 0.00 | 0.05 | 0.01 | 53 | 1009.9 |
| 20260903215842 | 91 | 145 | 5.2 | 11.3 | 0.00 | 0.05 | 0.01 | 52 | 1010.0 |
| 20260903215314 | 91 | 262 | 4.3 | 11.3 | 0.00 | 0.05 | 0.01 | 52 | 1010.1 |
| 20260903214808 | 91 | 91 | 4.3 | 9.6 | 0.00 | 0.05 | 0.01 | 52 | 1010.1 |
| 20260903214306 | 91 | 203 | 5.2 | 9.6 | 0.00 | 0.05 | 0.01 | 52 | 1010.2 |
| 20260903213738 | 91 | 171 | 4.3 | 9.6 | 0.00 | 0.05 | 0.01 | 52 | 1010.2 |
| 20260903213236 | 91 | 226 | 4.3 | 8.7 | 0.00 | 0.05 | 0.01 | 51 | 1010.3 |
| 20260903212706 | 91 | 112 | 4.3 | 10.4 | 0.00 | 0.05 | 0.01 | 53 | 1010.2 |
| 20260903212142 | 91 | 212 | 5.2 | 10.4 | 0.00 | 0.05 | 0.01 | 53 | 1010.3 |
| 20260903211617 | 90 | 250 | 6.1 | 12.2 | 0.00 | 0.05 | 0.01 | 53 | 1010.4 |
| 20260903211104 | 91 | 231 | 5.2 | 12.2 | 0.00 | 0.05 | 0.01 | 53 | 1010.4 |
| 20260903210607 | 91 | 128 | 5.2 | 10.4 | 0.00 | 0.05 | 0.01 | 52 | 1010.5 |
| 20260903210048 | 91 | 188 | 5.2 | 10.4 | 0.00 | 0.05 | 0.01 | 54 | 1010.5 |
| 20260903205545 | 90 | 199 | 5.2 | 11.3 | 0.00 | 0.05 | 0.01 | 53 | 1010.6 |
| 20260903205505 | 90 | 162 | 5.2 | 11.3 | 0.00 | 0.05 | 0.01 | 54 | 1010.6 |
| 20260903204720 | 91 | 200 | 4.3 | 10.4 | 0.00 | 0.05 | 0.01 | 53 | 1010.7 |
| 20260903203928 | 90 | 60 | 4.3 | 10.4 | 0.00 | 0.05 | 0.01 | 54 | 1010.8 |
| 20260903203401 | 90 | 148 | 5.2 | 10.4 | 0.00 | 0.05 | 0.01 | 55 | 1010.8 |
| 20260903202901 | 90 | 123 | 5.2 | 11.3 | 0.00 | 0.05 | 0.01 | 56 | 1011.0 |
| 20260903202332 | 90 | 115 | 5.2 | 11.3 | 0.00 | 0.05 | 0.01 | 55 | 1011.1 |
| 20260903201828 | 90 | 240 | 4.3 | 11.3 | 0.00 | 0.05 | 0.01 | 55 | 1011.1 |
| 20260903201327 | 90 | 250 | 4.3 | 11.3 | 0.00 | 0.05 | 0.01 | 55 | 1011.2 |
| 20260903200824 | 89 | 217 | 5.2 | 10.4 | 0.00 | 0.05 | 0.01 | 56 | 1011.2 |
| 20260903200302 | 89 | 139 | 5.2 | 10.4 | 0.00 | 0.05 | 0.01 | 57 | 1011.2 |
| 20260903195803 | 89 | 243 | 5.2 | 9.6 | 0.00 | 0.05 | 0.01 | 58 | 1011.2 |
| 20260903195233 | 88 | 165 | 5.2 | 10.4 | 0.00 | 0.05 | 0.01 | 59 | 1011.2 |
| 20260903194731 | 88 | 229 | 5.2 | 11.3 | 0.00 | 0.05 | 0.01 | 58 | 1011.2 |
| 20260903194224 | 88 | 173 | 4.3 | 11.3 | 0.00 | 0.05 | 0.01 | 59 | 1011.3 |
| 20260903193700 | 88 | 267 | 5.2 | 10.4 | 0.00 | 0.05 | 0.01 | 59 | 1011.3 |
| 20260903193352 | 88 | 162 | 4.3 | 8.7 | 0.00 | 0.05 | 0.01 | 58 | 1011.3 |
| 20260903192626 | 88 | 160 | 4.3 | 11.3 | 0.00 | 0.05 | 0.01 | 60 | 1011.4 |
| 20260903192129 | 87 | 146 | 5.2 | 10.4 | 0.00 | 0.05 | 0.01 | 60 | 1011.5 |
| 20260903191603 | 86 | 164 | 5.2 | 11.3 | 0.00 | 0.05 | 0.01 | 62 | 1011.6 |
| 20260903191046 | 86 | 120 | 4.3 | 11.3 | 0.00 | 0.05 | 0.01 | 62 | 1011.7 |
| 20260903190809 | 86 | 240 | 3.5 | 10.4 | 0.00 | 0.05 | 0.01 | 62 | 1012.0 |
| 20260903190017 | 86 | 123 | 4.3 | 10.4 | 0.00 | 0.05 | 0.01 | 62 | 1012.0 |
| 20260903185517 | 86 | 238 | 4.3 | 10.4 | 0.00 | 0.05 | 0.01 | 61 | 1012.1 |
| 20260903185218 | 87 | 160 | 5.2 | 10.4 | 0.00 | 0.05 | 0.01 | 60 | 1012.2 |
| 20260903184450 | 87 | 230 | 5.2 | 11.3 | 0.00 | 0.05 | 0.01 | 61 | 1012.2 |
| 20260903183920 | 86 | 229 | 6.1 | 12.2 | 0.00 | 0.05 | 0.01 | 64 | 1012.3 |
| 20260903183419 | 86 | 139 | 6.1 | 17.4 | 0.00 | 0.05 | 0.01 | 63 | 1012.3 |
| 20260903182915 | 86 | 117 | 5.2 | 17.4 | 0.00 | 0.05 | 0.01 | 63 | 1012.3 |
| 20260903182413 | 86 | 248 | 5.2 | 10.4 | 0.00 | 0.05 | 0.01 | 63 | 1012.4 |
| 20260903181855 | 85 | 131 | 6.1 | 13.9 | 0.00 | 0.05 | 0.01 | 65 | 1012.5 |
| 20260903181357 | 85 | 122 | 6.1 | 12.2 | 0.00 | 0.05 | 0.01 | 65 | 1012.6 |
| 20260903180830 | 84 | 246 | 5.2 | 13.0 | 0.00 | 0.05 | 0.01 | 67 | 1012.6 |
| 20260903180329 | 84 | 217 | 5.2 | 13.0 | 0.00 | 0.05 | 0.01 | 68 | 1012.7 |
| 20260903175828 | 84 | 113 | 5.2 | 12.2 | 0.00 | 0.05 | 0.01 | 69 | 1012.7 |
| 20260903175323 | 83 | 215 | 5.2 | 12.2 | 0.00 | 0.05 | 0.01 | 69 | 1012.8 |
| 20260903174820 | 83 | 112 | 5.2 | 12.2 | 0.00 | 0.05 | 0.01 | 70 | 1012.8 |
| 20260903174302 | 83 | 254 | 5.2 | 12.2 | 0.00 | 0.05 | 0.01 | 70 | 1012.8 |
| 20260903174023 | 83 | 194 | 6.1 | 12.2 | 0.00 | 0.05 | 0.01 | 70 | 1012.9 |
| 20260903173506 | 83 | 149 | 6.1 | 13.0 | 0.00 | 0.05 | 0.01 | 71 | 1012.9 |
| 20260903172747 | 83 | 163 | 6.1 | 13.0 | 0.00 | 0.05 | 0.01 | 72 | 1013.0 |
| 20260903172223 | 82 | 167 | 6.1 | 12.2 | 0.00 | 0.05 | 0.01 | 72 | 1013.0 |
| 20260903171656 | 82 | 158 | 6.1 | 10.4 | 0.00 | 0.05 | 0.01 | 73 | 1013.0 |
| 20260903171128 | 82 | 201 | 5.2 | 11.3 | 0.00 | 0.05 | 0.01 | 74 | 1013.0 |
| 20260903170626 | 82 | 153 | 4.3 | 9.6 | 0.00 | 0.05 | 0.01 | 74 | 1013.2 |
| 20260903170104 | 81 | 247 | 4.3 | 9.6 | 0.00 | 0.05 | 0.01 | 75 | 1013.1 |
| 20260903165534 | 81 | 140 | 4.3 | 8.7 | 0.00 | 0.05 | 0.01 | 75 | 1013.1 |
| 20260903165010 | 81 | 207 | 4.3 | 9.6 | 0.00 | 0.05 | 0.01 | 75 | 1013.0 |
| 20260903164441 | 81 | 231 | 4.3 | 7.8 | 0.00 | 0.05 | 0.01 | 76 | 1013.0 |
| 20260903163927 | 81 | 133 | 4.3 | 9.6 | 0.00 | 0.05 | 0.01 | 75 | 1013.0 |
| 20260903163418 | 81 | 139 | 4.3 | 8.7 | 0.00 | 0.05 | 0.01 | 75 | 1012.9 |
| 20260903162916 | 81 | 211 | 4.3 | 8.7 | 0.00 | 0.05 | 0.01 | 75 | 1012.9 |
| 20260903162355 | 82 | 129 | 3.5 | 8.7 | 0.00 | 0.05 | 0.01 | 76 | 1012.9 |
| 20260903161836 | 82 | 111 | 3.5 | 8.7 | 0.00 | 0.05 | 0.01 | 77 | 1012.8 |
| 20260903161335 | 82 | 245 | 3.5 | 8.7 | 0.00 | 0.05 | 0.01 | 76 | 1012.8 |
| 20260903160835 | 82 | 174 | 3.5 | 10.4 | 0.00 | 0.05 | 0.01 | 76 | 1012.8 |
| 20260903160314 | 82 | 121 | 3.5 | 10.4 | 0.00 | 0.05 | 0.01 | 77 | 1012.8 |
| 20260903155816 | 82 | 127 | 3.5 | 9.6 | 0.00 | 0.05 | 0.01 | 77 | 1012.8 |
| 20260903155525 | 81 | 136 | 4.3 | 9.6 | 0.00 | 0.05 | 0.01 | 77 | 1012.7 |
| 20260903155025 | 81 | 241 | 4.3 | 9.6 | 0.00 | 0.05 | 0.01 | 78 | 1012.7 |
| 20260903154303 | 81 | 184 | 4.3 | 9.6 | 0.00 | 0.05 | 0.01 | 79 | 1012.7 |
| 20260903153805 | 81 | 229 | 3.5 | 8.7 | 0.00 | 0.05 | 0.01 | 80 | 1012.7 |
| 20260903153236 | 80 | 204 | 2.6 | 7.0 | 0.00 | 0.05 | 0.01 | 81 | 1012.7 |
| 20260903152736 | 80 | 194 | 3.5 | 7.8 | 0.00 | 0.05 | 0.01 | 82 | 1012.7 |
| 20260903152500 | 80 | 137 | 2.6 | 7.8 | 0.00 | 0.05 | 0.01 | 82 | 1012.6 |
| 20260903152151 | 80 | 122 | 1.7 | 7.8 | 0.00 | 0.05 | 0.01 | 82 | 1012.7 |
| 20260903151155 | 80 | 141 | 3.5 | 7.8 | 0.00 | 0.05 | 0.01 | 83 | 1012.7 |
| 20260903150859 | 80 | 136 | 3.5 | 10.4 | 0.00 | 0.05 | 0.01 | 83 | 1012.7 |
| 20260903150132 | 80 | 139 | 3.5 | 10.4 | 0.00 | 0.05 | 0.01 | 83 | 1012.7 |
| 20260903145633 | 80 | 110 | 2.6 | 8.7 | 0.00 | 0.05 | 0.01 | 82 | 1012.7 |
| 20260903145132 | 80 | 105 | 2.6 | 8.7 | 0.00 | 0.05 | 0.01 | 82 | 1012.7 |
| 20260903144828 | 80 | 176 | 1.7 | 6.1 | 0.00 | 0.05 | 0.01 | 82 | 1012.7 |
| 20260903144044 | 80 | 190 | 0.9 | 7.8 | 0.00 | 0.05 | 0.01 | 82 | 1012.7 |
| 20260903143518 | 80 | 187 | 2.6 | 7.8 | 0.00 | 0.05 | 0.01 | 82 | 1012.7 |
| 20260903143015 | 80 | 150 | 2.6 | 9.6 | 0.00 | 0.05 | 0.01 | 82 | 1012.7 |
| 20260903142515 | 80 | 138 | 2.6 | 9.6 | 0.00 | 0.05 | 0.01 | 82 | 1012.7 |
| 20260903142008 | 80 | 136 | 3.5 | 7.8 | 0.00 | 0.05 | 0.01 | 83 | 1012.8 |
| 20260903141441 | 79 | 233 | 2.6 | 8.7 | 0.00 | 0.05 | 0.01 | 83 | 1012.7 |
| 20260903140940 | 79 | 139 | 2.6 | 7.0 | 0.00 | 0.05 | 0.01 | 83 | 1012.8 |
| 20260903140410 | 79 | 201 | 1.7 | 7.0 | 0.00 | 0.05 | 0.01 | 84 | 1012.9 |
| 20260903135904 | 79 | 161 | 1.7 | 7.0 | 0.00 | 0.05 | 0.01 | 84 | 1012.9 |
| 20260903135334 | 79 | 200 | 2.6 | 6.1 | 0.00 | 0.05 | 0.01 | 84 | 1012.8 |
| 20260903134831 | 79 | 112 | 2.6 | 6.1 | 0.00 | 0.05 | 0.01 | 85 | 1012.8 |
| 20260903134329 | 78 | 122 | 2.6 | 6.1 | 0.00 | 0.05 | 0.01 | 85 | 1012.8 |
| 20260903134249 | 78 | 144 | 2.6 | 7.8 | 0.00 | 0.05 | 0.01 | 85 | 1012.7 |
| 20260903133236 | 78 | 124 | 3.5 | 8.7 | 0.00 | 0.05 | 0.01 | 85 | 1012.7 |
| 20260903132736 | 78 | 164 | 3.5 | 8.7 | 0.00 | 0.05 | 0.01 | 85 | 1012.7 |
| 20260903132454 | 78 | 155 | 2.6 | 8.7 | 0.00 | 0.05 | 0.01 | 85 | 1012.8 |
| 20260903131930 | 78 | 124 | 2.6 | 8.7 | 0.00 | 0.05 | 0.01 | 85 | 1012.7 |
| 20260903131204 | 78 | 175 | 2.6 | 7.0 | 0.00 | 0.05 | 0.01 | 85 | 1012.6 |
| 20260903130635 | 78 | 134 | 1.7 | 6.1 | 0.00 | 0.05 | 0.01 | 85 | 1012.5 |
| 20260903130133 | 78 | 163 | 1.7 | 7.0 | 0.00 | 0.05 | 0.01 | 85 | 1012.5 |
| 20260903125605 | 78 | 86 | 2.6 | 7.0 | 0.00 | 0.05 | 0.01 | 86 | 1012.4 |
| 20260903125324 | 78 | 108 | 2.6 | 7.8 | 0.00 | 0.05 | 0.01 | 85 | 1012.4 |
| 20260903124551 | 77 | 124 | 2.6 | 7.8 | 0.00 | 0.05 | 0.01 | 85 | 1012.4 |
| 20260903124049 | 77 | 151 | 1.7 | 6.1 | 0.00 | 0.05 | 0.01 | 85 | 1012.4 |
| 20260903123527 | 77 | 146 | 2.6 | 7.8 | 0.00 | 0.05 | 0.01 | 85 | 1012.3 |
| 20260903123003 | 77 | 153 | 3.5 | 7.8 | 0.00 | 0.05 | 0.01 | 85 | 1012.2 |
| 20260903122938 | 77 | 106 | 3.5 | 7.8 | 0.00 | 0.05 | 0.01 | 85 | 1012.4 |
| 20260903122006 | 77 | 129 | 2.6 | 7.8 | 0.00 | 0.05 | 0.01 | 85 | 1012.4 |
| 20260903121503 | 77 | 134 | 2.6 | 7.0 | 0.00 | 0.05 | 0.01 | 85 | 1012.3 |
| 20260903121006 | 77 | 195 | 2.6 | 8.7 | 0.00 | 0.05 | 0.01 | 86 | 1012.2 |
| 20260903120437 | 77 | 134 | 1.7 | 8.7 | 0.00 | 0.05 | 0.01 | 86 | 1012.2 |
| 20260903115937 | 77 | 134 | 1.7 | 5.2 | 0.00 | 0.05 | 0.01 | 86 | 1012.2 |
| 20260903115408 | 77 | 110 | 1.7 | 5.2 | 0.00 | 0.05 | 0.01 | 86 | 1012.2 |
| 20260903114907 | 77 | 132 | 0.9 | 5.2 | 0.00 | 0.05 | 0.01 | 86 | 1012.1 |
| 20260903114352 | 77 | 194 | 0.9 | 5.2 | 0.00 | 0.05 | 0.01 | 86 | 1012.0 |
| 20260903113854 | 77 | 148 | 0.9 | 5.2 | 0.00 | 0.05 | 0.01 | 86 | 1011.9 |
| 20260903113325 | 77 | 170 | 0.9 | 5.2 | 0.00 | 0.05 | 0.01 | 86 | 1011.7 |
| 20260903113305 | 77 | 129 | 0.0 | 2.6 | 0.00 | 0.05 | 0.01 | 86 | 1012.0 |
| 20260903112257 | 77 | 131 | 0.9 | 2.6 | 0.00 | 0.05 | 0.01 | 86 | 1012.0 |
| 20260903111740 | 77 | 113 | 0.9 | 2.6 | 0.00 | 0.05 | 0.01 | 86 | 1012.0 |
| 20260903111235 | 77 | 221 | 0.9 | 2.6 | 0.00 | 0.05 | 0.01 | 86 | 1011.9 |
| 20260903110957 | 77 | 128 | 0.9 | 2.6 | 0.00 | 0.05 | 0.01 | 86 | 1011.9 |
| 20260903110231 | 76 | 191 | 0.9 | 2.6 | 0.00 | 0.05 | 0.01 | 86 | 1011.9 |
| 20260903105729 | 76 | 141 | 0.9 | 4.3 | 0.00 | 0.05 | 0.01 | 87 | 1012.0 |
| 20260903105444 | 76 | 143 | 0.9 | 7.0 | 0.00 | 0.05 | 0.01 | 87 | 1011.9 |
| 20260903104947 | 76 | 141 | 0.9 | 7.0 | 0.00 | 0.05 | 0.01 | 87 | 1011.7 |
| 20260903104159 | 76 | 152 | 1.7 | 7.0 | 0.00 | 0.05 | 0.01 | 87 | 1011.7 |
| 20260903103657 | 76 | 146 | 1.7 | 7.0 | 0.00 | 0.05 | 0.01 | 87 | 1011.7 |
| 20260903103129 | 76 | 220 | 1.7 | 5.2 | 0.00 | 0.05 | 0.01 | 87 | 1011.6 |
| 20260903102628 | 76 | 156 | 1.7 | 5.2 | 0.00 | 0.05 | 0.01 | 87 | 1011.6 |
| 20260903102615 | 76 | 127 | 1.7 | 4.3 | 0.00 | 0.05 | 0.01 | 87 | 1011.6 |
| 20260903101619 | 76 | 117 | 1.7 | 4.3 | 0.00 | 0.05 | 0.01 | 87 | 1011.6 |
| 20260903101341 | 76 | 128 | 0.9 | 4.3 | 0.00 | 0.05 | 0.01 | 87 | 1011.5 |
| 20260903100614 | 76 | 138 | 0.9 | 3.5 | 0.00 | 0.05 | 0.01 | 87 | 1011.5 |
| 20260903100110 | 76 | 125 | 0.9 | 3.5 | 0.00 | 0.05 | 0.01 | 87 | 1011.5 |
| 20260903095607 | 76 | 105 | 0.9 | 3.5 | 0.01 | 0.05 | 0.01 | 87 | 1011.6 |
| 20260903095056 | 76 | 141 | 1.7 | 5.2 | 0.01 | 0.05 | 0.01 | 86 | 1011.6 |
| 20260903094558 | 76 | 151 | 1.7 | 5.2 | 0.01 | 0.05 | 0.01 | 86 | 1011.7 |
| 20260903094049 | 76 | 158 | 0.9 | 5.2 | 0.01 | 0.05 | 0.01 | 86 | 1011.7 |
| 20260903093548 | 76 | 128 | 0.9 | 4.3 | 0.01 | 0.05 | 0.01 | 86 | 1011.6 |
| 20260903093020 | 76 | 115 | 0.9 | 4.3 | 0.01 | 0.05 | 0.01 | 86 | 1011.6 |
| 20260903092456 | 76 | 129 | 0.9 | 3.5 | 0.01 | 0.05 | 0.01 | 86 | 1011.6 |
| 20260903092144 | 76 | 116 | 0.9 | 3.5 | 0.01 | 0.05 | 0.01 | 86 | 1011.6 |
| 20260903091423 | 76 | 122 | 0.9 | 3.5 | 0.01 | 0.05 | 0.01 | 87 | 1011.6 |
| 20260903090925 | 76 | 117 | 0.0 | 5.2 | 0.01 | 0.05 | 0.01 | 87 | 1011.6 |
| 20260903090351 | 76 | 211 | 0.9 | 5.2 | 0.01 | 0.05 | 0.01 | 87 | 1011.3 |
| 20260903085827 | 76 | 264 | 1.7 | 7.0 | 0.01 | 0.05 | 0.01 | 87 | 1011.3 |
| 20260903085305 | 76 | 252 | 2.6 | 7.0 | 0.00 | 0.04 | 0.00 | 87 | 1011.4 |
| 20260903084733 | 76 | 227 | 2.6 | 5.2 | 0.00 | 0.04 | 0.00 | 87 | 1011.4 |
| 20260903084231 | 76 | 187 | 2.6 | 6.1 | 0.00 | 0.04 | 0.00 | 87 | 1011.4 |
| 20260903083704 | 76 | 176 | 2.6 | 6.1 | 0.00 | 0.04 | 0.00 | 87 | 1011.3 |
| 20260903083201 | 76 | 170 | 2.6 | 6.1 | 0.00 | 0.04 | 0.00 | 87 | 1011.3 |
| 20260903082700 | 76 | 217 | 1.7 | 6.1 | 0.00 | 0.04 | 0.00 | 87 | 1011.2 |
| 20260903082131 | 76 | 210 | 0.9 | 3.5 | 0.00 | 0.04 | 0.00 | 87 | 1011.3 |
| 20260903081630 | 76 | 156 | 0.9 | 2.6 | 0.00 | 0.04 | 0.00 | 87 | 1011.3 |
| 20260903081101 | 76 | 122 | 0.9 | 2.6 | 0.00 | 0.04 | 0.00 | 87 | 1011.3 |
| 20260903080558 | 76 | 138 | 0.0 | 2.6 | 0.00 | 0.04 | 0.00 | 87 | 1011.3 |
| 20260903080034 | 76 | 151 | 0.9 | 3.5 | 0.00 | 0.04 | 0.00 | 87 | 1011.3 |
| 20260903075506 | 76 | 115 | 0.9 | 4.3 | 0.00 | 0.04 | 0.00 | 87 | 1011.3 |
| 20260903075006 | 76 | 120 | 0.9 | 4.3 | 0.00 | 0.04 | 0.00 | 86 | 1011.2 |
| 20260903074503 | 76 | 114 | 0.0 | 2.6 | 0.00 | 0.04 | 0.00 | 86 | 1011.1 |
| 20260903074004 | 76 | 113 | 0.0 | 3.5 | 0.00 | 0.04 | 0.00 | 85 | 1011.1 |
| 20260903073437 | 77 | 129 | 0.9 | 3.5 | 0.00 | 0.04 | 0.00 | 85 | 1011.1 |
| 20260903072932 | 77 | 108 | 0.9 | 3.5 | 0.00 | 0.04 | 0.00 | 84 | 1011.2 |
| 20260903072432 | 77 | 122 | 0.0 | 3.5 | 0.00 | 0.04 | 0.00 | 83 | 1011.3 |
| 20260903071900 | 77 | 122 | 0.9 | 4.3 | 0.00 | 0.04 | 0.00 | 82 | 1011.3 |
| 20260903071338 | 78 | 113 | 0.9 | 5.2 | 0.00 | 0.04 | 0.00 | 81 | 1011.4 |
| 20260903070837 | 78 | 139 | 2.6 | 8.7 | 0.00 | 0.04 | 0.00 | 81 | 1011.4 |
| 20260903070337 | 78 | 124 | 3.5 | 9.6 | 0.00 | 0.04 | 0.00 | 79 | 1011.4 |
| 20260903065810 | 79 | 113 | 2.6 | 7.8 | 0.00 | 0.04 | 0.00 | 78 | 1011.4 |
| 20260903065241 | 79 | 87 | 1.7 | 7.8 | 0.00 | 0.04 | 0.00 | 76 | 1011.4 |
| 20260903065002 | 80 | 99 | 1.7 | 6.1 | 0.00 | 0.04 | 0.00 | 76 | 1011.4 |
| 20260903064458 | 80 | 115 | 0.9 | 6.1 | 0.00 | 0.04 | 0.00 | 75 | 1011.4 |
| 20260903063733 | 80 | 98 | 0.9 | 3.5 | 0.00 | 0.04 | 0.00 | 75 | 1011.4 |
| 20260903063205 | 80 | 109 | 0.0 | 3.5 | 0.00 | 0.04 | 0.00 | 75 | 1011.3 |
| 20260903062701 | 80 | 123 | 0.0 | 0.9 | 0.00 | 0.04 | 0.00 | 75 | 1011.3 |
| 20260903062138 | 80 | 123 | 0.0 | 1.7 | 0.00 | 0.04 | 0.00 | 75 | 1011.2 |
| 20260903061608 | 80 | 126 | 0.0 | 1.7 | 0.00 | 0.04 | 0.00 | 75 | 1011.3 |
| 20260903061107 | 80 | 126 | 0.9 | 5.2 | 0.00 | 0.04 | 0.00 | 75 | 1011.4 |
| 20260903060541 | 80 | 127 | 1.7 | 6.1 | 0.00 | 0.04 | 0.00 | 75 | 1011.4 |
| 20260903060037 | 80 | 124 | 1.7 | 6.1 | 0.00 | 0.04 | 0.00 | 75 | 1011.5 |
| 20260903055536 | 80 | 116 | 0.9 | 4.3 | 0.00 | 0.04 | 0.00 | 75 | 1011.6 |
| 20260903055009 | 80 | 127 | 0.9 | 3.5 | 0.00 | 0.04 | 0.00 | 75 | 1011.9 |
| 20260903054443 | 80 | 117 | 1.7 | 6.1 | 0.00 | 0.04 | 0.00 | 75 | 1012.0 |
| 20260903053921 | 80 | 117 | 1.7 | 7.0 | 0.00 | 0.04 | 0.00 | 74 | 1012.0 |
| 20260903053358 | 80 | 59 | 1.7 | 7.0 | 0.00 | 0.04 | 0.00 | 74 | 1012.0 |
| 20260903052835 | 80 | 107 | 1.7 | 8.7 | 0.00 | 0.04 | 0.00 | 73 | 1012.0 |
| 20260903052332 | 80 | 97 | 0.9 | 8.7 | 0.00 | 0.04 | 0.00 | 73 | 1012.1 |
| 20260903051833 | 80 | 105 | 0.0 | 4.3 | 0.00 | 0.04 | 0.00 | 72 | 1012.1 |
| 20260903051335 | 80 | 86 | 0.0 | 4.3 | 0.00 | 0.04 | 0.00 | 72 | 1012.0 |
| 20260903050829 | 80 | 129 | 0.0 | 6.1 | 0.00 | 0.04 | 0.00 | 72 | 1012.1 |
| 20260903050331 | 80 | 108 | 0.9 | 6.1 | 0.00 | 0.04 | 0.00 | 71 | 1012.2 |
| 20260903045807 | 80 | 120 | 1.7 | 7.8 | 0.00 | 0.04 | 0.04 | 71 | 1012.4 |
| 20260903045455 | 80 | 123 | 1.7 | 7.8 | 0.00 | 0.04 | 0.04 | 71 | 1012.3 |
| 20260903044707 | 80 | 123 | 1.7 | 10.4 | 0.00 | 0.04 | 0.04 | 70 | 1012.3 |
| 20260903044204 | 81 | 119 | 2.6 | 10.4 | 0.00 | 0.04 | 0.04 | 69 | 1012.3 |
| 20260903043921 | 81 | 115 | 4.3 | 10.4 | 0.00 | 0.04 | 0.04 | 69 | 1012.3 |
| 20260903043638 | 81 | 108 | 3.5 | 10.4 | 0.00 | 0.04 | 0.04 | 69 | 1012.2 |
| 20260903042652 | 81 | 132 | 3.5 | 9.6 | 0.00 | 0.04 | 0.04 | 69 | 1012.2 |
| 20260903042124 | 81 | 84 | 2.6 | 8.7 | 0.00 | 0.04 | 0.04 | 68 | 1012.2 |
| 20260903041622 | 81 | 28 | 1.7 | 6.1 | 0.00 | 0.04 | 0.04 | 68 | 1012.3 |
| 20260903041318 | 82 | 51 | 2.6 | 7.8 | 0.00 | 0.04 | 0.04 | 67 | 1012.3 |
| 20260903040751 | 82 | 108 | 2.6 | 7.0 | 0.00 | 0.04 | 0.04 | 66 | 1012.3 |
| 20260903040002 | 82 | 58 | 1.7 | 7.8 | 0.00 | 0.04 | 0.04 | 67 | 1012.3 |
| 20260903035458 | 82 | 116 | 1.7 | 7.8 | 0.00 | 0.04 | 0.04 | 66 | 1012.3 |
| 20260903034958 | 82 | 121 | 1.7 | 6.1 | 0.00 | 0.04 | 0.04 | 66 | 1012.3 |
| 20260903034428 | 82 | 58 | 1.7 | 7.0 | 0.00 | 0.04 | 0.04 | 66 | 1012.3 |
| 20260903033928 | 83 | 125 | 2.6 | 7.0 | 0.00 | 0.04 | 0.04 | 65 | 1012.3 |
| 20260903033617 | 83 | 128 | 2.6 | 6.1 | 0.00 | 0.04 | 0.04 | 65 | 1012.2 |
| 20260903032852 | 83 | 134 | 1.7 | 5.2 | 0.00 | 0.04 | 0.04 | 64 | 1012.1 |
| 20260903032827 | 83 | 127 | 0.9 | 5.2 | 0.00 | 0.04 | 0.04 | 64 | 1012.1 |
| 20260903031842 | 83 | 135 | 1.7 | 5.2 | 0.00 | 0.04 | 0.04 | 63 | 1012.1 |
| 20260903031338 | 83 | 115 | 1.7 | 6.1 | 0.00 | 0.04 | 0.04 | 62 | 1012.0 |
| 20260903030837 | 84 | 127 | 2.6 | 6.1 | 0.00 | 0.04 | 0.04 | 62 | 1012.1 |
| 20260903030337 | 84 | 118 | 2.6 | 7.0 | 0.00 | 0.04 | 0.04 | 62 | 1012.1 |
| 20260903025834 | 84 | 81 | 3.5 | 7.8 | 0.00 | 0.04 | 0.04 | 61 | 1012.1 |
| 20260903025805 | 84 | 129 | 3.5 | 7.8 | 0.00 | 0.04 | 0.04 | 61 | 1012.1 |
| 20260903024821 | 84 | 89 | 3.5 | 7.0 | 0.00 | 0.04 | 0.04 | 61 | 1012.1 |
| 20260903024309 | 85 | 193 | 3.5 | 12.2 | 0.00 | 0.04 | 0.04 | 60 | 1012.0 |
| 20260903023806 | 85 | 164 | 4.3 | 12.2 | 0.00 | 0.04 | 0.04 | 59 | 1012.0 |
| 20260903023309 | 85 | 115 | 5.2 | 12.2 | 0.00 | 0.04 | 0.04 | 59 | 1011.9 |
| 20260903023003 | 85 | 128 | 4.3 | 9.6 | 0.00 | 0.04 | 0.04 | 59 | 1011.7 |
| 20260903022228 | 85 | 131 | 4.3 | 9.6 | 0.00 | 0.04 | 0.04 | 58 | 1011.9 |
| 20260903021730 | 85 | 131 | 3.5 | 9.6 | 0.00 | 0.04 | 0.04 | 58 | 1011.7 |
| 20260903021202 | 86 | 85 | 3.5 | 7.8 | 0.00 | 0.04 | 0.04 | 58 | 1011.5 |
| 20260903020701 | 86 | 127 | 4.3 | 11.3 | 0.00 | 0.04 | 0.04 | 57 | 1011.5 |
| 20260903020351 | 86 | 156 | 5.2 | 12.2 | 0.00 | 0.04 | 0.04 | 57 | 1011.4 |
| 20260903015609 | 87 | 120 | 5.2 | 12.2 | 0.00 | 0.04 | 0.04 | 56 | 1011.3 |
| 20260903015040 | 87 | 122 | 5.2 | 13.0 | 0.00 | 0.04 | 0.04 | 55 | 1011.2 |
| 20260903014512 | 88 | 135 | 4.3 | 13.0 | 0.00 | 0.04 | 0.04 | 54 | 1011.1 |
| 20260903014011 | 88 | 121 | 4.3 | 7.8 | 0.00 | 0.04 | 0.04 | 54 | 1011.0 |
| 20260903013443 | 88 | 120 | 3.5 | 7.8 | 0.00 | 0.04 | 0.04 | 53 | 1010.9 |
| 20260903012942 | 88 | 139 | 3.5 | 7.8 | 0.00 | 0.04 | 0.04 | 53 | 1010.8 |
| 20260903012417 | 88 | 91 | 1.7 | 7.8 | 0.00 | 0.04 | 0.04 | 52 | 1010.7 |
| 20260903011844 | 88 | 120 | 0.9 | 7.0 | 0.00 | 0.04 | 0.04 | 51 | 1010.6 |
| 20260903011342 | 89 | 115 | 0.9 | 7.0 | 0.00 | 0.04 | 0.04 | 51 | 1010.5 |
| 20260903010841 | 88 | 115 | 0.9 | 5.2 | 0.00 | 0.04 | 0.04 | 51 | 1010.5 |
| 20260903010328 | 89 | 101 | 0.9 | 5.2 | 0.00 | 0.04 | 0.04 | 50 | 1010.5 |
| 20260903005831 | 89 | 121 | 1.7 | 5.2 | 0.00 | 0.04 | 0.04 | 50 | 1010.4 |
| 20260903005302 | 89 | 113 | 1.7 | 7.8 | 0.00 | 0.04 | 0.04 | 50 | 1010.4 |
| 20260903004735 | 89 | 120 | 1.7 | 7.8 | 0.00 | 0.04 | 0.04 | 49 | 1010.4 |
| 20260903004430 | 89 | 130 | 1.7 | 7.0 | 0.00 | 0.04 | 0.04 | 50 | 1010.4 |
| 20260903003711 | 89 | 110 | 0.9 | 5.2 | 0.00 | 0.04 | 0.04 | 51 | 1010.4 |
| 20260903003136 | 89 | 249 | 0.9 | 5.2 | 0.00 | 0.04 | 0.04 | 52 | 1010.3 |
| 20260903002635 | 90 | 115 | 0.9 | 5.2 | 0.00 | 0.04 | 0.04 | 51 | 1010.3 |
| 20260903002106 | 90 | 125 | 0.9 | 5.2 | 0.00 | 0.04 | 0.04 | 51 | 1010.3 |
| 20260903001732 | 90 | 122 | 0.9 | 3.5 | 0.00 | 0.04 | 0.04 | 53 | 1010.2 |
| 20260903001616 | 90 | 83 | 0.9 | 5.2 | 0.00 | 0.04 | 0.04 | 52 | 1010.2 |
| 20260903000753 | 90 | 123 | 0.9 | 3.5 | 0.00 | 0.04 | 0.04 | 54 | 1010.2 |
| 20260903000003 | 89 | 130 | 0.9 | 6.1 | 0.00 | 0.04 | 0.04 | 56 | 1010.2 |
| 20260902235500 | 89 | 130 | 0.9 | 6.1 | 0.00 | 0.04 | 0.04 | 57 | 1010.2 |
| 20260902234957 | 88 | 95 | 0.0 | 6.1 | 0.00 | 0.04 | 0.04 | 58 | 1010.2 |
| 20260902234647 | 88 | 129 | 0.0 | 0.9 | 0.00 | 0.04 | 0.04 | 63 | 1010.1 |
| 20260902233909 | 88 | 219 | 0.0 | 0.9 | 0.00 | 0.04 | 0.04 | 63 | 1010.1 |
| 20260902233336 | 88 | 219 | 0.0 | 0.0 | 0.04 | 0.04 | 0.04 | 65 | 1010.2 |
| 20260902233104 | 88 | 214 | 0.0 | 0.0 | 0.04 | 0.04 | 0.04 | 66 | 1010.1 |
| 20260902232326 | 87 | 214 | 0.0 | 0.0 | 0.04 | 0.04 | 0.04 | 67 | 1010.1 |
| 20260902231825 | 87 | 214 | 0.0 | 0.0 | 0.04 | 0.04 | 0.04 | 66 | 1010.2 |
| 20260902231256 | 87 | 214 | 0.0 | 0.9 | 0.04 | 0.04 | 0.04 | 67 | 1010.2 |
| 20260902230753 | 86 | 214 | 0.0 | 0.9 | 0.04 | 0.04 | 0.04 | 66 | 1010.1 |